MST,Max TemperatureF,Mean TemperatureF,Min TemperatureF,Max Dew PointF,MeanDew PointF,Min DewpointF,Max Humidity, Mean Humidity, Min Humidity, Max Sea Level PressureIn, Mean Sea Level PressureIn, Min Sea Level PressureIn, Max VisibilityMiles, Mean VisibilityMiles, Min VisibilityMiles, Max Wind SpeedMPH, Mean Wind SpeedMPH, Max Gust SpeedMPH,PrecipitationIn, CloudCover, Events, WindDirDegrees
2013-11-1,66,52,37,23,20,16,47,30,15,30.25,30.18,30.07,10,10,10,15,6,20,0.00,0,,338
2013-11-2,69,51,33,23,19,16,54,29,14,30.33,30.22,30.09,10,10,7,16,5,20,0.00,0,,117
2013-11-3,74,58,42,41,29,17,62,33,20,30.08,29.96,29.86,10,10,10,18,7,30,0.00,2,Rain,216
2013-11-4,70,56,42,50,43,38,96,60,31,29.99,29.91,29.86,10,10,10,12,5,16,0.00,4,,179
2013-11-5,66,57,47,43,34,24,73,44,26,30.19,30.02,29.88,10,10,10,25,13,37,0.00,2,,274
2013-11-6,61,48,36,28,11,0,49,25,10,30.39,30.33,30.19,10,10,10,16,10,21,0.00,0,,353
2013-11-7,66,48,29,21,13,4,44,25,14,30.47,30.37,30.29,10,10,10,10,5,16,0.00,0,,116
2013-11-8,70,53,36,36,28,17,56,38,26,30.29,30.18,30.08,10,10,10,13,5,17,0.00,0,,204
2013-11-9,72,54,37,39,29,21,75,43,19,30.23,30.18,30.12,10,10,10,9,4,,0.00,0,,12
2013-11-10,73,54,35,29,25,22,60,35,16,30.32,30.25,30.21,10,10,10,8,2,,0.00,0,,111
2013-11-11,74,56,39,37,29,23,55,37,23,30.29,30.24,30.19,10,10,10,9,3,,0.00,0,,14
2013-11-12,63,52,42,39,33,23,77,49,33,30.54,30.46,30.30,10,10,2,21,9,29,0.00,0,,138
2013-11-13,56,50,43,40,38,36,77,67,53,30.53,30.37,30.19,10,10,10,15,7,22,0.00,7,,96
2013-11-14,67,52,36,42,37,32,87,56,31,30.19,30.07,29.98,10,10,10,10,3,9,0.00,1,,246
2013-11-15,70,52,35,47,40,31,88,60,34,30.01,29.91,29.80,10,10,10,25,7,36,0.00,2,Thunderstorm,197
2013-11-16,71,60,48,50,41,32,93,54,23,29.94,29.84,29.78,10,10,7,34,13,41,0.02,1,Rain-Thunderstorm,233
2013-11-17,66,55,44,42,36,30,80,51,28,30.16,30.07,29.94,10,10,10,25,12,33,0.00,0,,257
2013-11-18,68,57,46,35,33,31,59,43,28,30.24,30.17,30.12,10,10,10,7,3,,0.00,1,,134
2013-11-19,69,54,39,39,35,31,73,50,30,30.13,30.03,29.95,10,10,10,13,3,21,0.00,1,,252
2013-11-20,68,56,44,37,34,31,61,44,28,30.00,29.94,29.88,10,10,10,13,7,18,0.00,0,,246
2013-11-21,69,56,44,43,36,32,63,45,32,30.08,30.03,29.97,10,10,10,16,6,22,0.00,3,Rain,222
2013-11-22,59,46,34,36,31,25,76,63,42,30.32,30.19,30.05,10,10,10,24,10,31,0.00,6,,137
2013-11-23,40,36,31,32,28,25,85,71,59,30.39,30.32,30.25,10,10,7,20,10,26,0.00,8,Rain-Snow,125
2013-11-24,33,30,26,29,27,24,96,87,78,30.31,30.25,30.18,10,8,1,14,7,18,0.04,8,Snow-Thunderstorm,158
2013-11-25,42,36,29,34,30,28,96,87,69,30.31,30.19,30.13,10,10,7,12,6,,0.00,4,,297
2013-11-26,49,37,25,32,28,24,96,72,39,30.44,30.38,30.31,10,10,10,7,2,,0.00,0,,196
2013-11-27,45,35,25,29,25,22,90,67,41,30.42,30.31,30.21,10,10,10,8,4,,0.00,0,,74
2013-11-28,54,39,24,30,26,22,92,64,32,30.29,30.23,30.19,10,10,10,7,4,,0.00,0,,11
2013-11-29,60,45,30,33,31,26,86,63,34,30.37,30.29,30.24,10,10,10,7,3,,0.00,0,,359
2013-11-30,59,46,34,38,35,31,91,66,39,30.32,30.26,30.21,10,10,10,6,3,,0.00,0,,355